Regional Weather Roundup
Issued by NWS Little Rock, AR

Home | Current Version | Previous Version | Text Only | Print | Product List | Glossary On
Versions: 1 2 3 4 5 6 7 8 9 10 11 12 13 14 15 16 17 18 19 20 21 22 23 24 25 26 27 28 29 30 31 32 33 34 35 36 37 38 39 40 41 42 43 44 45 46 47 48 49 50
000
ASUS44 KLZK 201105
RWRLZK

WEATHER ROUNDUP FOR ARKANSAS
NATIONAL WEATHER SERVICE LITTLE ROCK AR
600 AM CDT MON OCT 20 2014

NOTE: "FAIR" INDICATES FEW OR NO CLOUDS BELOW 12,000 FEET WITH NO
SIGNIFICANT WEATHER AND/OR OBSTRUCTIONS TO VISIBILITY.

ARZ001-003-010-029-201200-
NORTHWEST ARKANSAS

CITY           SKY/WX    TMP DP  RH WIND       PRES   REMARKS
FAYETTEVILLE   CLOUDY    53  52  96 S5        30.08R
FORT SMITH     MOCLDY    54  51  90 CALM      30.07R
HARRISON       CLOUDY    56  51  84 W8        30.06S
BENTONVILLE    CLOUDY    55  52  88 SW3       30.07S
ROGERS         CLOUDY    55  53  93 CALM      30.08R
SILOAM SPGS    CLOUDY    55  48  76 SE3       30.08S
HIGHFILL       CLOUDY    54  53  97 SW5       30.06R
$$

ARZ004-005-016-201200-
NORTH CENTRAL ARKANSAS

CITY           SKY/WX    TMP DP  RH WIND       PRES   REMARKS
BATESVILLE     PTCLDY    50  46  87 CALM      30.06S
FLIPPIN        PTCLDY    52  45  76 CALM      30.06S
MTN HOME       CLOUDY    53  48  83 SW5       30.05R
$$

ARZ040-041-201200-
WEST CENTRAL ARKANSAS

CITY           SKY/WX    TMP DP  RH WIND       PRES   REMARKS
MENA           CLEAR     50  48  93 CALM      30.08R
MOUNT IDA      CLEAR     46  45  96 CALM      30.06R
$$

ARZ009-017-025-026-028-201200-
NORTHEAST ARKANSAS

CITY           SKY/WX    TMP DP  RH WIND       PRES   REMARKS
CORNING        FAIR      52  50  93 SW6       30.05F
JONESBORO      PTCLDY    49  47  93 CALM      30.06S
NEWPORT        PTCLDY    48  47  97 S3        30.07F
WALNUT RIDGE   PTCLDY    50  37  62 S5        30.06S
BLYTHEVILLE    PTCLDY    52  50  93 S3        30.07S
$$

ARZ022-023-033-042-044-201200-
CENTRAL ARKANSAS

CITY           SKY/WX    TMP DP  RH WIND       PRES   REMARKS
LITTLE ROCK    PTCLDY    50  45  83 SW3       30.08R
N LITTLE ROCK    N/A     54  49  83 SW5       30.08R
JACKSONVILLE   CLOUDY    48  46  93 CALM      30.08R
SEARCY         PTCLDY    46  45  96 CALM      30.09R
HOT SPRINGS    PTCLDY    48  46  93 CALM      30.08S
RUSSELLVILLE   PTCLDY    49  48  97 CALM      30.07R
$$

ARZ036-201200-
EAST ARKANSAS

CITY           SKY/WX    TMP DP  RH WIND       PRES   REMARKS
WEST MEMPHIS   FOG       45  45 100 CALM      30.07R VSB 1/2
$$

ARZ050-053-066-070-073-201200-
SOUTHWEST ARKANSAS

CITY           SKY/WX    TMP DP  RH WIND       PRES   REMARKS
ARKADELPHIA    FAIR      48  48 100 CALM      30.09R FOG
CAMDEN         CLEAR     43  41  93 CALM      30.08S FOG
TEXARKANA      CLEAR     50  48  93 CALM      30.08R
EL DORADO      CLEAR     46  44  93 CALM      30.08R
DE QUEEN       FOG       48  48 100 CALM      30.07R VSB 1/2
$$

ARZ056-057-069-201200-
SOUTHEAST ARKANSAS

CITY           SKY/WX    TMP DP  RH WIND       PRES   REMARKS
PINE BLUFF     CLEAR     47  44  90 CALM      30.08R
STUTTGART      PTCLDY    48  45  87 CALM      30.08R
MONTICELLO     CLEAR     47  44  90 CALM      30.07S

$$





USA.gov is the U.S. government's official web portal to all federal, state and local government web resources and services.